Time,TemperatureF,DewpointF,PressureIn,WindDirection,WindDirectionDegrees,WindSpeedMPH,WindSpeedGustMPH,Humidity,HourlyPrecipIn,Conditions,Clouds,dailyrainin,SolarRadiationWatts/m^2,SoftwareType,DateUTC
2013-07-14 00:02:00,68.4,61.3,30.13,South,190,0.0,0.0,78,0.00,CLR,,0.00,0.0,WeatherDisplay:10.37,2013-07-14 05:02:00,
2013-07-14 00:07:00,68.3,61.2,30.13,South,190,0.0,0.0,78,0.00,FEW,,0.00,0.0,WeatherDisplay:10.37,2013-07-14 05:07:00,
2013-07-14 00:12:00,68.1,61.0,30.13,South,190,0.0,0.0,78,0.00,FEW,,0.00,0.0,WeatherDisplay:10.37,2013-07-14 05:12:00,
2013-07-14 00:17:00,67.9,60.8,30.13,South,190,0.0,0.0,78,0.00,FEW,,0.00,0.0,WeatherDisplay:10.37,2013-07-14 05:17:00,
2013-07-14 00:22:00,67.8,60.7,30.13,South,190,0.0,0.0,78,0.00,FEW,,0.00,0.0,WeatherDisplay:10.37,2013-07-14 05:22:00,
2013-07-14 00:27:00,67.6,60.9,30.13,South,190,0.0,0.0,79,0.00,FEW,,0.00,0.0,WeatherDisplay:10.37,2013-07-14 05:27:00,
2013-07-14 00:32:00,67.4,61.0,30.14,South,190,0.0,0.0,80,0.00,FEW,,0.00,0.0,WeatherDisplay:10.37,2013-07-14 05:32:00,
2013-07-14 00:37:00,67.3,61.3,30.14,South,190,0.0,0.0,81,0.00,FEW,,0.00,0.0,WeatherDisplay:10.37,2013-07-14 05:37:00,
2013-07-14 00:42:00,67.1,61.4,30.14,South,190,0.0,0.0,82,0.00,FEW,,0.00,0.0,WeatherDisplay:10.37,2013-07-14 05:42:00,
2013-07-14 00:47:00,66.8,61.1,30.15,South,190,0.0,0.0,82,0.00,FEW,,0.00,0.0,WeatherDisplay:10.37,2013-07-14 05:47:00,
2013-07-14 00:52:00,66.3,60.6,30.15,South,190,0.0,0.0,82,0.00,FEW,,0.00,0.0,WeatherDisplay:10.37,2013-07-14 05:52:00,
2013-07-14 00:57:00,66.0,60.7,30.15,South,190,0.0,0.0,83,0.00,FEW,,0.00,0.0,WeatherDisplay:10.37,2013-07-14 05:57:00,
2013-07-14 01:02:00,65.6,60.3,30.15,South,190,0.0,0.0,83,0.00,FEW,,0.00,0.0,WeatherDisplay:10.37,2013-07-14 06:02:00,
2013-07-14 01:08:00,65.3,60.3,30.15,South,190,0.0,0.0,84,0.00,FEW,,0.00,0.0,WeatherDisplay:10.37,2013-07-14 06:08:00,
2013-07-14 01:13:00,65.0,60.4,30.15,South,190,0.0,0.0,85,0.00,FEW,,0.00,0.0,WeatherDisplay:10.37,2013-07-14 06:13:00,
2013-07-14 01:18:00,64.8,60.2,30.15,South,190,0.0,0.0,85,0.00,FEW,,0.00,0.0,WeatherDisplay:10.37,2013-07-14 06:18:00,
2013-07-14 01:23:00,64.5,60.2,30.15,South,190,0.0,0.0,86,0.00,FEW,,0.00,0.0,WeatherDisplay:10.37,2013-07-14 06:23:00,
2013-07-14 01:28:00,64.3,60.0,30.15,South,190,0.0,0.0,86,0.00,FEW,,0.00,0.0,WeatherDisplay:10.37,2013-07-14 06:28:00,
2013-07-14 01:33:00,64.2,60.2,30.15,South,190,0.0,0.0,87,0.00,FEW,,0.00,0.0,WeatherDisplay:10.37,2013-07-14 06:33:00,
2013-07-14 01:38:00,64.0,60.1,30.15,South,190,0.0,0.0,87,0.00,FEW,,0.00,0.0,WeatherDisplay:10.37,2013-07-14 06:38:00,
2013-07-14 01:43:00,63.9,60.0,30.15,South,190,0.0,0.0,87,0.00,FEW,,0.00,0.0,WeatherDisplay:10.37,2013-07-14 06:43:00,
2013-07-14 01:48:00,63.7,60.1,30.16,South,190,0.0,0.0,88,0.00,FEW,,0.00,0.0,WeatherDisplay:10.37,2013-07-14 06:48:00,
2013-07-14 01:53:00,63.5,59.9,30.16,South,190,0.0,0.0,88,0.00,FEW,,0.00,0.0,WeatherDisplay:10.37,2013-07-14 06:53:00,
2013-07-14 01:58:00,63.4,59.8,30.16,South,190,0.0,0.0,88,0.00,FEW,,0.00,0.0,WeatherDisplay:10.37,2013-07-14 06:58:00,
2013-07-14 02:03:00,63.4,59.8,30.16,South,190,0.0,0.0,88,0.00,FEW,,0.00,0.0,WeatherDisplay:10.37,2013-07-14 07:03:00,
2013-07-14 02:08:00,63.2,59.6,30.16,South,190,0.0,0.0,88,0.00,FEW,,0.00,0.0,WeatherDisplay:10.37,2013-07-14 07:08:00,
2013-07-14 02:13:00,63.2,59.6,30.16,South,190,0.0,0.0,88,0.00,FEW,,0.00,0.0,WeatherDisplay:10.37,2013-07-14 07:13:00,
2013-07-14 02:18:00,63.1,59.5,30.15,South,190,0.0,0.0,88,0.00,FEW,,0.00,0.0,WeatherDisplay:10.37,2013-07-14 07:18:00,
2013-07-14 02:23:00,63.1,59.5,30.15,South,190,0.0,0.0,88,0.00,FEW,,0.00,0.0,WeatherDisplay:10.37,2013-07-14 07:23:00,
2013-07-14 02:28:00,62.9,59.3,30.15,South,190,0.0,0.0,88,0.00,FEW,,0.00,0.0,WeatherDisplay:10.37,2013-07-14 07:28:00,
2013-07-14 02:33:00,62.9,59.3,30.15,South,190,0.0,0.0,88,0.00,FEW,,0.00,0.0,WeatherDisplay:10.37,2013-07-14 07:33:00,
2013-07-14 02:38:00,62.9,59.3,30.15,South,190,0.0,0.0,88,0.00,FEW,,0.00,0.0,WeatherDisplay:10.37,2013-07-14 07:38:00,
2013-07-14 02:43:00,62.7,59.1,30.15,South,190,0.0,0.0,88,0.00,FEW,,0.00,0.0,WeatherDisplay:10.37,2013-07-14 07:43:00,
2013-07-14 02:48:00,62.7,59.1,30.15,South,190,0.0,0.0,88,0.00,FEW,,0.00,0.0,WeatherDisplay:10.37,2013-07-14 07:48:00,
2013-07-14 02:53:00,62.6,59.0,30.15,South,190,0.0,0.0,88,0.00,FEW,,0.00,0.0,WeatherDisplay:10.37,2013-07-14 07:53:00,
2013-07-14 02:58:00,62.6,59.0,30.15,South,190,0.0,0.0,88,0.00,FEW,,0.00,0.0,WeatherDisplay:10.37,2013-07-14 07:58:00,
2013-07-14 03:03:00,62.4,59.1,30.15,South,190,0.0,0.0,89,0.00,FEW,,0.00,0.0,WeatherDisplay:10.37,2013-07-14 08:03:00,
2013-07-14 03:08:00,62.4,59.1,30.15,South,190,0.0,0.0,89,0.00,FEW,,0.00,0.0,WeatherDisplay:10.37,2013-07-14 08:08:00,
2013-07-14 03:13:00,62.3,59.0,30.15,South,190,0.0,0.0,89,0.00,FEW,,0.00,0.0,WeatherDisplay:10.37,2013-07-14 08:13:00,
2013-07-14 03:18:00,62.3,59.0,30.15,South,190,0.0,0.0,89,0.00,FEW,,0.00,0.0,WeatherDisplay:10.37,2013-07-14 08:18:00,
2013-07-14 03:23:00,62.1,58.8,30.15,South,190,0.0,0.0,89,0.00,FEW,,0.00,0.0,WeatherDisplay:10.37,2013-07-14 08:23:00,
2013-07-14 03:28:00,62.1,58.8,30.15,South,190,0.0,0.0,89,0.00,FEW,,0.00,0.0,WeatherDisplay:10.37,2013-07-14 08:28:00,
2013-07-14 03:33:00,62.0,58.7,30.15,South,190,0.0,0.0,89,0.00,FEW,,0.00,0.0,WeatherDisplay:10.37,2013-07-14 08:33:00,
2013-07-14 03:38:00,62.0,58.7,30.15,South,190,0.0,0.0,89,0.00,FEW,,0.00,0.0,WeatherDisplay:10.37,2013-07-14 08:38:00,
2013-07-14 03:43:00,61.8,58.8,30.15,South,190,0.0,0.0,90,0.00,FEW,,0.00,0.0,WeatherDisplay:10.37,2013-07-14 08:43:00,
2013-07-14 03:48:00,61.6,58.6,30.15,South,190,0.0,0.0,90,0.00,FEW,,0.00,0.0,WeatherDisplay:10.37,2013-07-14 08:48:00,
2013-07-14 03:53:00,61.5,58.5,30.15,South,190,0.0,0.0,90,0.00,FEW,,0.00,0.0,WeatherDisplay:10.37,2013-07-14 08:53:00,
2013-07-14 03:58:00,61.5,58.5,30.15,South,190,0.0,0.0,90,0.00,FEW,,0.00,0.0,WeatherDisplay:10.37,2013-07-14 08:58:00,
2013-07-14 04:03:00,61.3,58.7,30.15,South,190,0.0,0.0,91,0.00,FEW,,0.00,0.0,WeatherDisplay:10.37,2013-07-14 09:03:00,
2013-07-14 04:08:00,61.3,58.7,30.15,South,190,0.0,0.0,91,0.00,FEW,,0.00,0.0,WeatherDisplay:10.37,2013-07-14 09:08:00,
2013-07-14 04:13:00,61.2,58.6,30.15,South,190,0.0,0.0,91,0.00,FEW,,0.00,0.0,WeatherDisplay:10.37,2013-07-14 09:13:00,
2013-07-14 04:18:00,61.2,58.6,30.15,South,190,0.0,0.0,91,0.00,FEW,,0.00,0.0,WeatherDisplay:10.37,2013-07-14 09:18:00,
2013-07-14 04:23:00,61.0,58.7,30.15,South,190,0.0,0.0,92,0.00,FEW,,0.00,0.0,WeatherDisplay:10.37,2013-07-14 09:23:00,
2013-07-14 04:28:00,61.0,58.7,30.15,South,190,0.0,0.0,92,0.00,FEW,,0.00,0.0,WeatherDisplay:10.37,2013-07-14 09:28:00,
2013-07-14 04:33:00,61.0,58.7,30.15,South,190,0.0,0.0,92,0.00,FEW,,0.00,0.0,WeatherDisplay:10.37,2013-07-14 09:33:00,
2013-07-14 04:38:00,60.9,58.6,30.15,South,190,0.0,0.0,92,0.00,FEW,,0.00,0.0,WeatherDisplay:10.37,2013-07-14 09:38:00,
2013-07-14 04:43:00,60.9,58.6,30.15,South,190,0.0,0.0,92,0.00,FEW,,0.00,0.0,WeatherDisplay:10.37,2013-07-14 09:43:00,
2013-07-14 04:48:00,60.9,58.6,30.15,South,190,0.0,0.0,92,0.00,FEW,,0.00,0.0,WeatherDisplay:10.37,2013-07-14 09:48:00,
2013-07-14 04:53:00,60.9,58.6,30.15,South,190,0.0,0.0,92,0.00,FEW,,0.00,0.0,WeatherDisplay:10.37,2013-07-14 09:53:00,
2013-07-14 04:58:00,60.9,58.6,30.15,South,190,0.0,0.0,92,0.00,FEW,,0.00,0.0,WeatherDisplay:10.37,2013-07-14 09:58:00,
2013-07-14 05:03:00,60.9,58.6,30.15,South,190,0.0,0.0,92,0.00,FEW,,0.00,0.0,WeatherDisplay:10.37,2013-07-14 10:03:00,
2013-07-14 05:08:00,60.7,58.4,30.15,South,190,0.0,0.0,92,0.00,FEW,,0.00,0.0,WeatherDisplay:10.37,2013-07-14 10:08:00,
2013-07-14 05:13:00,60.5,58.2,30.15,South,190,0.0,0.0,92,0.00,FEW,,0.00,0.0,WeatherDisplay:10.37,2013-07-14 10:13:00,
2013-07-14 05:18:00,60.5,58.2,30.15,South,190,0.0,0.0,92,0.00,FEW,,0.00,0.0,WeatherDisplay:10.37,2013-07-14 10:18:00,
2013-07-14 05:23:00,60.5,58.2,30.15,South,190,0.0,0.0,92,0.00,FEW,,0.00,0.0,WeatherDisplay:10.37,2013-07-14 10:23:00,
2013-07-14 05:28:00,60.4,58.1,30.15,South,190,0.0,0.0,92,0.00,FEW,,0.00,0.0,WeatherDisplay:10.37,2013-07-14 10:28:00,
2013-07-14 05:33:00,60.2,57.9,30.15,South,190,0.0,0.0,92,0.00,FEW,,0.00,0.0,WeatherDisplay:10.37,2013-07-14 10:33:00,
2013-07-14 05:38:00,60.2,58.2,30.15,South,190,0.0,0.0,93,0.00,FEW,,0.00,7.0,WeatherDisplay:10.37,2013-07-14 10:38:00,
2013-07-14 05:43:00,60.2,58.2,30.15,South,190,0.0,0.0,93,0.00,FEW,,0.00,9.0,WeatherDisplay:10.37,2013-07-14 10:43:00,
2013-07-14 05:48:00,60.1,58.1,30.15,South,190,0.0,0.0,93,0.00,FEW,,0.00,12.0,WeatherDisplay:10.37,2013-07-14 10:48:00,
2013-07-14 05:53:00,60.1,58.1,30.15,South,190,0.0,0.0,93,0.00,FEW,,0.00,16.0,WeatherDisplay:10.37,2013-07-14 10:53:00,
2013-07-14 05:58:00,59.9,57.9,30.15,South,190,0.0,0.0,93,0.00,FEW,,0.00,18.0,WeatherDisplay:10.37,2013-07-14 10:58:00,
2013-07-14 06:03:00,59.9,57.9,30.15,South,190,0.0,0.0,93,0.00,FEW,,0.00,21.0,WeatherDisplay:10.37,2013-07-14 11:03:00,
2013-07-14 06:08:00,59.9,58.2,30.15,South,190,0.0,0.0,94,0.00,FEW,,0.00,23.0,WeatherDisplay:10.37,2013-07-14 11:08:00,
2013-07-14 06:25:00,60.2,58.5,30.15,South,190,0.0,0.0,94,0.00,,,0.00,30.0,WeatherDisplay:10.37,2013-07-14 11:25:00,
2013-07-14 06:30:00,60.4,58.7,30.15,South,190,0.0,0.0,94,0.00,,,0.00,32.0,WeatherDisplay:10.37,2013-07-14 11:30:00,
2013-07-14 06:35:00,60.7,59.0,30.15,South,190,0.0,0.0,94,0.00,,,0.00,32.0,WeatherDisplay:10.37,2013-07-14 11:35:00,
2013-07-14 06:40:00,61.0,59.3,30.15,South,190,0.0,0.0,94,0.00,,,0.00,32.0,WeatherDisplay:10.37,2013-07-14 11:40:00,
2013-07-14 06:45:00,61.3,59.3,30.15,South,190,0.0,0.0,93,0.00,,,0.00,33.0,WeatherDisplay:10.37,2013-07-14 11:45:00,
2013-07-14 06:50:00,61.5,59.5,30.15,South,190,0.0,0.0,93,0.00,,,0.00,35.0,WeatherDisplay:10.37,2013-07-14 11:50:00,
2013-07-14 06:55:00,61.6,59.6,30.15,South,190,0.0,0.0,93,0.00,,,0.00,114.0,WeatherDisplay:10.37,2013-07-14 11:55:00,
2013-07-14 07:00:00,62.0,60.0,30.15,South,190,0.0,0.0,93,0.00,OVC,,0.00,163.0,WeatherDisplay:10.37,2013-07-14 12:00:00,
2013-07-14 07:05:00,62.4,60.7,30.15,South,190,0.0,0.0,94,0.00,OVC,,0.00,178.0,WeatherDisplay:10.37,2013-07-14 12:05:00,
2013-07-14 07:10:00,63.1,60.7,30.15,South,190,0.0,0.0,92,0.00,OVC,,0.00,195.0,WeatherDisplay:10.37,2013-07-14 12:10:00,
2013-07-14 07:15:00,63.4,61.0,30.16,South,190,0.0,0.0,92,0.00,OVC,,0.00,211.0,WeatherDisplay:10.37,2013-07-14 12:15:00,
2013-07-14 07:20:00,63.9,61.2,30.16,South,190,0.0,0.0,91,0.00,OVC,,0.00,229.0,WeatherDisplay:10.37,2013-07-14 12:20:00,
2013-07-14 07:25:00,64.5,61.5,30.16,South,190,0.0,0.0,90,0.00,OVC,,0.00,250.0,WeatherDisplay:10.37,2013-07-14 12:25:00,
2013-07-14 07:30:00,64.8,61.5,30.16,South,190,0.0,0.0,89,0.00,OVC,,0.00,276.0,WeatherDisplay:10.37,2013-07-14 12:30:00,
2013-07-14 07:35:00,65.6,61.9,30.16,South,190,0.0,0.0,88,0.00,OVC,,0.00,294.0,WeatherDisplay:10.37,2013-07-14 12:35:00,
2013-07-14 07:40:00,66.6,62.3,30.16,South,190,0.0,0.0,86,0.00,OVC,,0.00,313.0,WeatherDisplay:10.37,2013-07-14 12:40:00,
2013-07-14 07:45:00,67.3,62.3,30.16,South,190,0.0,0.0,84,0.00,OVC,,0.00,327.0,WeatherDisplay:10.37,2013-07-14 12:45:00,
2013-07-14 07:50:00,68.1,62.4,30.16,South,190,0.0,0.0,82,0.00,OVC,,0.00,339.0,WeatherDisplay:10.37,2013-07-14 12:50:00,
2013-07-14 07:55:00,68.6,62.5,30.16,South,190,0.0,0.0,81,0.00,OVC,,0.00,355.0,WeatherDisplay:10.37,2013-07-14 12:55:00,
2013-07-14 08:00:00,69.1,62.3,30.16,South,190,0.0,0.0,79,0.00,OVC,,0.00,367.0,WeatherDisplay:10.37,2013-07-14 13:00:00,
2013-07-14 08:05:00,69.4,63.0,30.16,South,190,0.0,0.0,80,0.00,OVC,,0.00,380.0,WeatherDisplay:10.37,2013-07-14 13:05:00,
2013-07-14 08:10:00,69.4,62.6,30.16,South,190,0.0,0.0,79,0.00,OVC,,0.00,396.0,WeatherDisplay:10.37,2013-07-14 13:10:00,
2013-07-14 08:15:00,69.6,63.2,30.17,South,190,0.0,0.0,80,0.00,OVC,,0.00,413.0,WeatherDisplay:10.37,2013-07-14 13:15:00,
2013-07-14 08:20:00,69.8,63.0,30.17,South,190,0.0,0.0,79,0.00,OVC,,0.00,425.0,WeatherDisplay:10.37,2013-07-14 13:20:00,
2013-07-14 08:25:00,70.4,63.6,30.17,South,190,0.0,0.0,79,0.00,OVC,,0.00,438.0,WeatherDisplay:10.37,2013-07-14 13:25:00,
2013-07-14 08:30:00,70.6,63.4,30.18,South,190,0.0,0.0,78,0.00,OVC,,0.00,452.0,WeatherDisplay:10.37,2013-07-14 13:30:00,
2013-07-14 08:35:00,70.9,63.7,30.18,South,190,0.0,0.0,78,0.00,CLR,,0.00,468.0,WeatherDisplay:10.37,2013-07-14 13:35:00,
2013-07-14 08:40:00,71.6,64.4,30.18,South,190,0.0,0.0,78,0.00,CLR,,0.00,485.0,WeatherDisplay:10.37,2013-07-14 13:40:00,
2013-07-14 08:45:00,72.0,64.0,30.18,South,190,0.0,0.0,76,0.00,CLR,,0.00,497.0,WeatherDisplay:10.37,2013-07-14 13:45:00,
2013-07-14 08:50:00,72.5,64.9,30.18,South,190,0.0,0.0,77,0.00,CLR,,0.00,510.0,WeatherDisplay:10.37,2013-07-14 13:50:00,
2013-07-14 08:55:00,73.0,65.0,30.18,South,190,0.0,0.0,76,0.00,CLR,,0.00,522.0,WeatherDisplay:10.37,2013-07-14 13:55:00,
2013-07-14 09:00:00,73.5,65.1,30.18,South,190,0.0,0.0,75,0.00,CLR,,0.00,538.0,WeatherDisplay:10.37,2013-07-14 14:00:00,
2013-07-14 09:05:00,74.0,65.2,30.18,South,190,0.0,0.0,74,0.00,CLR,,0.00,554.0,WeatherDisplay:10.37,2013-07-14 14:05:00,
2013-07-14 09:10:00,74.0,65.6,30.18,South,190,0.0,0.0,75,0.00,CLR,,0.00,566.0,WeatherDisplay:10.37,2013-07-14 14:10:00,
2013-07-14 09:15:00,74.6,65.8,30.18,South,190,0.0,0.0,74,0.00,CLR,,0.00,577.0,WeatherDisplay:10.37,2013-07-14 14:15:00,
2013-07-14 09:20:00,74.9,66.1,30.18,South,190,0.0,0.0,74,0.00,FEW,,0.00,592.0,WeatherDisplay:10.37,2013-07-14 14:20:00,
2013-07-14 09:25:00,75.6,66.3,30.18,South,190,0.0,0.0,73,0.00,FEW,,0.00,601.0,WeatherDisplay:10.37,2013-07-14 14:25:00,
2013-07-14 09:30:00,76.5,66.8,30.18,South,190,0.0,0.0,72,0.00,FEW,,0.00,619.0,WeatherDisplay:10.37,2013-07-14 14:30:00,
2013-07-14 09:35:00,76.5,66.8,30.18,South,190,0.0,1.2,72,0.00,FEW,,0.00,631.0,WeatherDisplay:10.37,2013-07-14 14:35:00,
2013-07-14 09:40:00,76.8,67.1,30.18,South,190,0.0,1.2,72,0.00,FEW,,0.00,642.0,WeatherDisplay:10.37,2013-07-14 14:40:00,
2013-07-14 09:45:00,77.6,67.0,30.18,South,190,0.0,0.0,70,0.00,FEW,,0.00,652.0,WeatherDisplay:10.37,2013-07-14 14:45:00,
2013-07-14 09:50:00,78.1,67.1,30.18,South,190,0.0,0.0,69,0.00,FEW,,0.00,668.0,WeatherDisplay:10.37,2013-07-14 14:50:00,
2013-07-14 09:56:00,78.8,67.3,30.18,SSW,195,0.0,6.6,68,0.00,FEW,,0.00,677.0,WeatherDisplay:10.37,2013-07-14 14:56:00,
2013-07-14 10:00:00,78.6,67.2,30.18,South,176,0.3,2.3,68,0.00,FEW,,0.00,691.0,WeatherDisplay:10.37,2013-07-14 15:00:00,
2013-07-14 10:05:00,78.8,67.8,30.18,South,176,0.0,0.0,69,0.00,FEW,,0.00,701.0,WeatherDisplay:10.37,2013-07-14 15:05:00,
2013-07-14 10:10:00,79.4,67.9,30.18,South,176,0.0,0.0,68,0.00,FEW,,0.00,712.0,WeatherDisplay:10.37,2013-07-14 15:10:00,
2013-07-14 10:15:00,79.9,68.4,30.18,SSE,155,0.0,0.0,68,0.00,FEW,,0.00,731.0,WeatherDisplay:10.37,2013-07-14 15:15:00,
2013-07-14 10:20:00,80.1,68.6,30.18,South,169,0.1,1.2,68,0.00,FEW,,0.00,733.0,WeatherDisplay:10.37,2013-07-14 15:20:00,
2013-07-14 10:25:00,80.3,68.3,30.18,South,170,0.0,0.0,67,0.00,FEW,,0.00,738.0,WeatherDisplay:10.37,2013-07-14 15:25:00,
2013-07-14 10:30:00,80.3,68.8,30.19,South,171,0.0,1.2,68,0.00,FEW,,0.00,740.0,WeatherDisplay:10.37,2013-07-14 15:30:00,
2013-07-14 10:35:00,80.9,68.9,30.19,South,171,0.0,0.0,67,0.00,FEW,,0.00,772.0,WeatherDisplay:10.37,2013-07-14 15:35:00,
2013-07-14 10:40:00,81.1,69.1,30.19,South,171,0.2,2.2,67,0.00,FEW,,0.00,772.0,WeatherDisplay:10.37,2013-07-14 15:40:00,
2013-07-14 10:45:00,80.9,67.6,30.19,South,178,0.6,4.6,64,0.00,FEW,,0.00,788.0,WeatherDisplay:10.37,2013-07-14 15:45:00,
2013-07-14 10:50:00,80.5,67.6,30.19,South,188,0.6,5.8,65,0.00,FEW,,0.00,793.0,WeatherDisplay:10.37,2013-07-14 15:50:00,
2013-07-14 10:55:00,80.9,68.0,30.19,South,187,0.0,0.0,65,0.00,FEW,,0.00,802.0,WeatherDisplay:10.37,2013-07-14 15:55:00,
2013-07-14 11:00:00,81.8,68.9,30.20,South,188,0.1,1.1,65,0.00,FEW,,0.00,842.0,WeatherDisplay:10.37,2013-07-14 16:00:00,
2013-07-14 11:05:00,81.4,67.6,30.20,SSW,192,1.1,3.5,63,0.00,FEW,,0.00,849.0,WeatherDisplay:10.37,2013-07-14 16:05:00,
2013-07-14 11:10:00,81.2,67.4,30.20,South,186,0.0,0.0,63,0.00,FEW,,0.00,849.0,WeatherDisplay:10.37,2013-07-14 16:10:00,
2013-07-14 11:15:00,82.0,67.2,30.20,South,186,0.1,1.2,61,0.00,FEW,,0.00,858.0,WeatherDisplay:10.37,2013-07-14 16:15:00,
2013-07-14 11:20:00,81.8,66.6,30.20,South,181,3.8,8.1,60,0.00,FEW,,0.00,914.0,WeatherDisplay:10.37,2013-07-14 16:20:00,
2013-07-14 11:25:00,82.2,67.9,30.20,South,181,0.0,1.2,62,0.00,FEW,,0.00,925.0,WeatherDisplay:10.37,2013-07-14 16:25:00,
2013-07-14 11:30:00,81.8,66.6,30.20,SSW,194,1.3,6.9,60,0.00,SCT,,0.00,258.0,WeatherDisplay:10.37,2013-07-14 16:30:00,
2013-07-14 11:35:00,81.4,65.7,30.20,South,191,2.6,6.9,59,0.00,BKN,,0.00,1014.0,WeatherDisplay:10.37,2013-07-14 16:35:00,
2013-07-14 11:40:00,81.6,65.9,30.20,South,184,1.8,5.8,59,0.00,FEW,,0.00,1027.0,WeatherDisplay:10.37,2013-07-14 16:40:00,
2013-07-14 11:45:00,81.8,66.6,30.19,SSW,205,2.1,6.6,60,0.00,CLR,,0.00,937.0,WeatherDisplay:10.37,2013-07-14 16:45:00,
2013-07-14 11:50:00,82.0,64.8,30.19,SSW,197,3.1,6.9,56,0.00,FEW,,0.00,946.0,WeatherDisplay:10.37,2013-07-14 16:50:00,
2013-07-14 11:56:00,83.0,65.7,30.19,SSW,196,1.2,5.5,56,0.00,FEW,,0.00,958.0,WeatherDisplay:10.37,2013-07-14 16:56:00,
2013-07-14 12:00:00,83.8,66.9,30.20,SSW,196,0.1,1.2,57,0.00,SCT,,0.00,237.0,WeatherDisplay:10.37,2013-07-14 17:00:00,
2013-07-14 12:05:00,84.0,67.1,30.20,South,191,0.0,0.0,57,0.00,SCT,,0.00,1000.0,WeatherDisplay:10.37,2013-07-14 17:05:00,
2013-07-14 12:10:00,84.5,66.6,30.20,South,180,0.7,5.5,55,0.00,CLR,,0.00,997.0,WeatherDisplay:10.37,2013-07-14 17:10:00,
2013-07-14 12:15:00,84.0,65.6,30.20,South,184,0.9,4.6,54,0.00,CLR,,0.00,1011.0,WeatherDisplay:10.37,2013-07-14 17:15:00,
2013-07-14 12:20:00,84.1,66.2,30.20,South,179,0.7,4.4,55,0.00,BKN,,0.00,232.0,WeatherDisplay:10.37,2013-07-14 17:20:00,
2013-07-14 12:25:00,83.2,64.8,30.20,SSW,194,0.7,4.4,54,0.00,BKN,,0.00,385.0,WeatherDisplay:10.37,2013-07-14 17:25:00,
2013-07-14 12:30:00,84.0,66.1,30.20,SSW,194,0.0,0.0,55,0.00,SCT,,0.00,255.0,WeatherDisplay:10.37,2013-07-14 17:30:00,
2013-07-14 12:35:00,83.4,64.5,30.20,SW,234,1.5,5.5,53,0.00,BKN,,0.00,276.0,WeatherDisplay:10.37,2013-07-14 17:35:00,
2013-07-14 12:40:00,83.0,65.7,30.20,SW,216,0.0,1.2,56,0.00,BKN,,0.00,220.0,WeatherDisplay:10.37,2013-07-14 17:40:00,
2013-07-14 12:45:00,82.6,64.8,30.20,SE,142,1.8,8.8,55,0.00,BKN,,0.00,954.0,WeatherDisplay:10.37,2013-07-14 17:45:00,
2013-07-14 12:51:00,83.2,64.3,30.20,SE,141,0.0,4.6,53,0.00,SCT,,0.00,956.0,WeatherDisplay:10.37,2013-07-14 17:51:00,
2013-07-14 12:56:00,83.4,65.5,30.20,South,172,3.3,6.9,55,0.00,FEW,,0.00,1014.0,WeatherDisplay:10.37,2013-07-14 17:56:00,
2013-07-14 13:01:00,82.6,64.3,30.19,SSW,192,1.7,4.4,54,0.00,BKN,,0.00,218.0,WeatherDisplay:10.37,2013-07-14 18:01:00,
2013-07-14 13:06:00,82.0,64.8,30.19,South,180,0.0,0.0,56,0.00,BKN,,0.00,265.0,WeatherDisplay:10.37,2013-07-14 18:06:00,
2013-07-14 13:11:00,82.6,63.7,30.19,South,171,3.3,8.8,53,0.00,BKN,,0.00,990.0,WeatherDisplay:10.37,2013-07-14 18:11:00,
2013-07-14 13:16:00,83.8,65.4,30.19,South,177,0.1,1.1,54,0.00,FEW,,0.00,956.0,WeatherDisplay:10.37,2013-07-14 18:16:00,
2013-07-14 13:21:00,84.3,64.8,30.19,SE,126,0.0,1.2,52,0.00,FEW,,0.00,979.0,WeatherDisplay:10.37,2013-07-14 18:21:00,
2013-07-14 13:26:00,84.5,65.5,30.19,South,172,0.0,1.2,53,0.00,FEW,,0.00,972.0,WeatherDisplay:10.37,2013-07-14 18:26:00,
2013-07-14 13:31:00,84.1,63.5,30.19,SW,215,4.9,8.8,50,0.00,FEW,,0.00,972.0,WeatherDisplay:10.37,2013-07-14 18:31:00,
2013-07-14 13:36:00,84.3,63.1,30.19,South,178,2.7,8.1,49,0.00,FEW,,0.00,970.0,WeatherDisplay:10.37,2013-07-14 18:36:00,
2013-07-14 13:41:00,84.7,65.1,30.19,South,169,2.9,6.6,52,0.00,FEW,,0.00,940.0,WeatherDisplay:10.37,2013-07-14 18:41:00,
2013-07-14 13:46:00,84.5,65.5,30.19,South,182,2.1,3.5,53,0.00,FEW,,0.00,1034.0,WeatherDisplay:10.37,2013-07-14 18:46:00,
2013-07-14 13:51:00,84.7,65.1,30.19,SW,225,0.0,0.0,52,0.00,CLR,,0.00,406.0,WeatherDisplay:10.37,2013-07-14 18:51:00,
2013-07-14 13:56:00,84.7,65.1,30.19,South,181,0.0,1.1,52,0.00,SCT,,0.00,1121.0,WeatherDisplay:10.37,2013-07-14 18:56:00,
2013-07-14 14:01:00,85.3,65.7,30.19,SSW,205,0.0,4.6,52,0.00,CLR,,0.00,990.0,WeatherDisplay:10.37,2013-07-14 19:01:00,
2013-07-14 14:06:00,86.3,64.3,30.19,South,169,0.0,0.0,48,0.00,FEW,,0.00,925.0,WeatherDisplay:10.37,2013-07-14 19:06:00,
2013-07-14 14:11:00,86.3,64.9,30.19,South,170,0.2,4.4,49,0.00,FEW,,0.00,1056.0,WeatherDisplay:10.37,2013-07-14 19:11:00,
2013-07-14 14:16:00,85.7,64.9,30.19,South,180,0.1,1.2,50,0.00,SCT,,0.00,285.0,WeatherDisplay:10.37,2013-07-14 19:16:00,
2013-07-14 14:21:00,85.7,66.0,30.19,South,180,0.8,3.5,52,0.00,BKN,,0.00,814.0,WeatherDisplay:10.37,2013-07-14 19:21:00,
2013-07-14 14:26:00,86.7,65.3,30.19,South,177,0.0,1.2,49,0.00,CLR,,0.00,986.0,WeatherDisplay:10.37,2013-07-14 19:26:00,
2013-07-14 14:31:00,86.1,64.7,30.18,South,190,0.9,5.5,49,0.00,CLR,,0.00,306.0,WeatherDisplay:10.37,2013-07-14 19:31:00,
2013-07-14 14:36:00,86.3,65.5,30.18,South,181,0.9,5.5,50,0.00,SCT,,0.00,949.0,WeatherDisplay:10.37,2013-07-14 19:36:00,
2013-07-14 14:41:00,86.1,63.5,30.18,South,175,1.0,5.8,47,0.00,SCT,,0.00,202.0,WeatherDisplay:10.37,2013-07-14 19:41:00,
2013-07-14 14:46:00,86.7,65.3,30.18,South,177,0.0,5.8,49,0.00,SCT,,0.00,946.0,WeatherDisplay:10.37,2013-07-14 19:46:00,
2013-07-14 14:51:00,86.7,64.1,30.18,SSW,196,3.1,7.7,47,0.00,FEW,,0.00,844.0,WeatherDisplay:10.37,2013-07-14 19:51:00,
2013-07-14 14:56:00,86.7,62.8,30.18,South,187,0.8,4.6,45,0.00,FEW,,0.00,837.0,WeatherDisplay:10.37,2013-07-14 19:56:00,
2013-07-14 15:01:00,86.5,64.5,30.18,South,185,1.4,6.9,48,0.00,FEW,,0.00,861.0,WeatherDisplay:10.37,2013-07-14 20:01:00,
2013-07-14 15:06:00,87.0,64.3,30.18,South,176,1.1,5.5,47,0.00,FEW,,0.00,831.0,WeatherDisplay:10.37,2013-07-14 20:06:00,
2013-07-14 15:11:00,87.0,63.1,30.18,East,96,0.1,1.2,45,0.00,FEW,,0.00,858.0,WeatherDisplay:10.37,2013-07-14 20:11:00,
2013-07-14 15:16:00,86.5,63.3,30.17,South,178,1.7,9.9,46,0.00,SCT,,0.00,807.0,WeatherDisplay:10.37,2013-07-14 20:16:00,
2013-07-14 15:21:00,86.3,64.3,30.17,SSE,163,2.1,6.9,48,0.00,FEW,,0.00,793.0,WeatherDisplay:10.37,2013-07-14 20:21:00,
2013-07-14 15:26:00,86.5,63.9,30.17,SSE,157,3.0,9.2,47,0.00,FEW,,0.00,784.0,WeatherDisplay:10.37,2013-07-14 20:26:00,
2013-07-14 15:31:00,87.0,63.7,30.17,SE,130,1.2,4.6,46,0.00,FEW,,0.00,770.0,WeatherDisplay:10.37,2013-07-14 20:31:00,
2013-07-14 15:36:00,86.5,63.3,30.17,SSW,198,4.0,8.1,46,0.00,FEW,,0.00,779.0,WeatherDisplay:10.37,2013-07-14 20:36:00,
2013-07-14 15:41:00,86.3,63.7,30.17,SSW,209,3.1,9.2,47,0.00,FEW,,0.00,770.0,WeatherDisplay:10.37,2013-07-14 20:41:00,
2013-07-14 15:46:00,86.7,65.3,30.17,South,181,0.7,5.8,49,0.00,FEW,,0.00,747.0,WeatherDisplay:10.37,2013-07-14 20:46:00,
2013-07-14 15:51:00,87.4,64.1,30.17,SSE,161,0.2,1.2,46,0.00,FEW,,0.00,724.0,WeatherDisplay:10.37,2013-07-14 20:51:00,
2013-07-14 15:56:00,86.3,63.1,30.17,South,178,3.2,9.2,46,0.00,FEW,,0.00,708.0,WeatherDisplay:10.37,2013-07-14 20:56:00,
2013-07-14 16:01:00,86.5,64.5,30.17,South,177,0.8,5.8,48,0.00,FEW,,0.00,694.0,WeatherDisplay:10.37,2013-07-14 21:01:00,
2013-07-14 16:06:00,86.7,62.8,30.17,SSE,164,3.3,8.1,45,0.00,FEW,,0.00,700.0,WeatherDisplay:10.37,2013-07-14 21:06:00,
2013-07-14 16:11:00,86.7,65.3,30.17,South,187,0.0,1.2,49,0.00,FEW,,0.00,689.0,WeatherDisplay:10.37,2013-07-14 21:11:00,
2013-07-14 16:16:00,87.0,64.9,30.17,SSE,165,3.7,6.6,48,0.00,FEW,,0.00,673.0,WeatherDisplay:10.37,2013-07-14 21:16:00,
2013-07-14 16:21:00,86.5,63.9,30.17,South,171,0.9,5.5,47,0.00,FEW,,0.00,656.0,WeatherDisplay:10.37,2013-07-14 21:21:00,
2013-07-14 16:26:00,86.5,64.5,30.17,SSW,207,2.5,11.5,48,0.00,FEW,,0.00,652.0,WeatherDisplay:10.37,2013-07-14 21:26:00,
2013-07-14 16:32:00,86.3,63.7,30.17,South,176,0.8,5.8,47,0.00,FEW,,0.00,622.0,WeatherDisplay:10.37,2013-07-14 21:32:00,
2013-07-14 16:37:00,86.7,64.1,30.17,South,176,0.3,2.2,47,0.00,FEW,,0.00,605.0,WeatherDisplay:10.37,2013-07-14 21:37:00,
2013-07-14 16:42:00,87.4,64.7,30.17,South,179,0.9,4.6,47,0.00,FEW,,0.00,606.0,WeatherDisplay:10.37,2013-07-14 21:42:00,
2013-07-14 16:46:00,86.5,64.5,30.17,SSW,192,2.0,6.6,48,0.00,FEW,,0.00,603.0,WeatherDisplay:10.37,2013-07-14 21:46:00,
2013-07-14 16:52:00,86.5,65.1,30.17,South,170,0.8,4.4,49,0.00,CLR,,0.00,657.0,WeatherDisplay:10.37,2013-07-14 21:52:00,
2013-07-14 16:57:00,86.7,64.1,30.17,SSW,210,0.7,5.5,47,0.00,CLR,,0.00,612.0,WeatherDisplay:10.37,2013-07-14 21:57:00,
2013-07-14 17:02:00,86.7,65.3,30.17,South,181,1.0,4.4,49,0.00,CLR,,0.00,608.0,WeatherDisplay:10.37,2013-07-14 22:02:00,
2013-07-14 17:07:00,86.5,63.9,30.17,South,180,1.2,9.2,47,0.00,CLR,,0.00,626.0,WeatherDisplay:10.37,2013-07-14 22:07:00,
2013-07-14 17:12:00,86.5,65.1,30.17,South,184,0.1,1.2,49,0.00,CLR,,0.00,619.0,WeatherDisplay:10.37,2013-07-14 22:12:00,
2013-07-14 17:17:00,86.5,65.1,30.17,South,190,2.4,5.8,49,0.00,CLR,,0.00,591.0,WeatherDisplay:10.37,2013-07-14 22:17:00,
2013-07-14 17:22:00,86.5,65.1,30.17,South,171,1.4,5.8,49,0.00,SCT,,0.00,204.0,WeatherDisplay:10.37,2013-07-14 22:22:00,
2013-07-14 17:27:00,86.7,65.3,30.17,South,172,2.1,5.8,49,0.00,SCT,,0.00,517.0,WeatherDisplay:10.37,2013-07-14 22:27:00,
2013-07-14 17:32:00,86.5,64.5,30.17,South,183,4.5,8.1,48,0.00,CLR,,0.00,475.0,WeatherDisplay:10.37,2013-07-14 22:32:00,
2013-07-14 17:37:00,86.7,64.1,30.17,South,176,1.3,5.5,47,0.00,FEW,,0.00,448.0,WeatherDisplay:10.37,2013-07-14 22:37:00,
2013-07-14 17:42:00,86.3,65.5,30.17,South,184,0.3,3.5,50,0.00,FEW,,0.00,431.0,WeatherDisplay:10.37,2013-07-14 22:42:00,
2013-07-14 17:47:00,86.3,65.5,30.17,South,184,0.0,1.2,50,0.00,FEW,,0.00,438.0,WeatherDisplay:10.37,2013-07-14 22:47:00,
2013-07-14 17:52:00,86.5,65.7,30.17,South,182,0.0,1.2,50,0.00,FEW,,0.00,420.0,WeatherDisplay:10.37,2013-07-14 22:52:00,
2013-07-14 17:57:00,86.3,64.9,30.17,South,177,2.0,8.1,49,0.00,FEW,,0.00,378.0,WeatherDisplay:10.37,2013-07-14 22:57:00,
2013-07-14 18:02:00,86.1,65.3,30.17,South,182,0.2,3.3,50,0.00,FEW,,0.00,378.0,WeatherDisplay:10.37,2013-07-14 23:02:00,
2013-07-14 18:07:00,85.9,65.1,30.17,South,190,0.9,4.4,50,0.00,FEW,,0.00,388.0,WeatherDisplay:10.37,2013-07-14 23:07:00,
2013-07-14 18:12:00,85.5,64.7,30.17,South,174,1.0,4.4,50,0.00,FEW,,0.00,364.0,WeatherDisplay:10.37,2013-07-14 23:12:00,
2013-07-14 18:17:00,85.5,65.3,30.17,South,182,1.1,3.5,51,0.00,FEW,,0.00,343.0,WeatherDisplay:10.37,2013-07-14 23:17:00,
2013-07-14 18:22:00,85.5,65.9,30.17,South,182,0.1,3.5,52,0.00,FEW,,0.00,302.0,WeatherDisplay:10.37,2013-07-14 23:22:00,
2013-07-14 18:27:00,85.5,64.7,30.17,South,174,0.0,1.2,50,0.00,FEW,,0.00,309.0,WeatherDisplay:10.37,2013-07-14 23:27:00,
2013-07-14 18:32:00,85.7,65.5,30.17,South,174,0.0,1.2,51,0.00,FEW,,0.00,234.0,WeatherDisplay:10.37,2013-07-14 23:32:00,
2013-07-14 18:37:00,85.5,65.9,30.17,South,176,0.0,0.0,52,0.00,FEW,,0.00,151.0,WeatherDisplay:10.37,2013-07-14 23:37:00,
2013-07-14 18:42:00,85.3,65.1,30.17,South,176,0.6,4.6,51,0.00,FEW,,0.00,227.0,WeatherDisplay:10.37,2013-07-14 23:42:00,
2013-07-14 18:47:00,85.1,65.5,30.17,South,180,0.1,1.2,52,0.00,FEW,,0.00,60.0,WeatherDisplay:10.37,2013-07-14 23:47:00,
2013-07-14 18:52:00,84.7,65.1,30.17,South,181,0.3,2.2,52,0.00,FEW,,0.00,53.0,WeatherDisplay:10.37,2013-07-14 23:52:00,
2013-07-14 18:57:00,84.3,65.8,30.17,South,181,0.0,0.0,54,0.00,FEW,,0.00,192.0,WeatherDisplay:10.37,2013-07-14 23:57:00,
2013-07-14 19:02:00,84.1,66.2,30.17,South,181,0.0,1.2,55,0.00,FEW,,0.00,179.0,WeatherDisplay:10.37,2013-07-15 00:02:00,
2013-07-14 19:07:00,84.1,65.7,30.17,South,180,0.0,0.0,54,0.00,FEW,,0.00,167.0,WeatherDisplay:10.37,2013-07-15 00:07:00,
2013-07-14 19:12:00,84.1,65.1,30.17,South,178,0.7,3.5,53,0.00,FEW,,0.00,156.0,WeatherDisplay:10.37,2013-07-15 00:12:00,
2013-07-14 19:17:00,84.1,65.7,30.17,South,178,1.0,5.8,54,0.00,FEW,,0.00,146.0,WeatherDisplay:10.37,2013-07-15 00:17:00,
2013-07-14 19:22:00,84.0,65.6,30.17,South,178,0.0,1.2,54,0.00,FEW,,0.00,128.0,WeatherDisplay:10.37,2013-07-15 00:22:00,
2013-07-14 19:27:00,83.8,66.4,30.17,South,178,0.0,0.0,56,0.00,FEW,,0.00,40.0,WeatherDisplay:10.37,2013-07-15 00:27:00,
2013-07-14 19:32:00,83.4,66.6,30.17,South,178,0.0,1.2,57,0.00,FEW,,0.00,35.0,WeatherDisplay:10.37,2013-07-15 00:32:00,
2013-07-14 19:37:00,83.2,66.4,30.17,South,178,0.0,1.0,57,0.00,FEW,,0.00,33.0,WeatherDisplay:10.37,2013-07-15 00:37:00,
2013-07-14 19:42:00,83.2,67.4,30.17,South,178,0.0,0.0,59,0.00,FEW,,0.00,33.0,WeatherDisplay:10.37,2013-07-15 00:42:00,
2013-07-14 19:47:00,83.0,67.2,30.17,South,178,0.0,0.0,59,0.00,FEW,,0.00,30.0,WeatherDisplay:10.37,2013-07-15 00:47:00,
2013-07-14 19:52:00,82.8,67.0,30.17,South,178,0.0,0.0,59,0.00,FEW,,0.00,26.0,WeatherDisplay:10.37,2013-07-15 00:52:00,
2013-07-14 19:57:00,82.6,67.3,30.17,South,178,0.0,1.0,60,0.00,FEW,,0.00,23.0,WeatherDisplay:10.37,2013-07-15 00:57:00,
2013-07-14 20:02:00,82.4,67.1,30.17,South,178,0.0,0.0,60,0.00,FEW,,0.00,21.0,WeatherDisplay:10.37,2013-07-15 01:02:00,
2013-07-14 20:07:00,82.4,67.6,30.17,South,178,0.0,0.0,61,0.00,FEW,,0.00,18.0,WeatherDisplay:10.37,2013-07-15 01:07:00,
2013-07-14 20:12:00,82.2,67.9,30.17,South,178,0.0,0.0,62,0.00,FEW,,0.00,12.0,WeatherDisplay:10.37,2013-07-15 01:12:00,
2013-07-14 20:17:00,82.0,67.7,30.18,South,178,0.0,0.0,62,0.00,FEW,,0.00,9.0,WeatherDisplay:10.37,2013-07-15 01:17:00,
2013-07-14 20:22:00,81.6,67.3,30.18,South,178,0.0,0.0,62,0.00,FEW,,0.00,7.0,WeatherDisplay:10.37,2013-07-15 01:22:00,
2013-07-14 20:27:00,81.4,67.6,30.18,South,178,0.0,0.0,63,0.00,FEW,,0.00,5.0,WeatherDisplay:10.37,2013-07-15 01:27:00,
2013-07-14 20:32:00,81.2,67.4,30.18,South,178,0.0,0.0,63,0.00,FEW,,0.00,0.0,WeatherDisplay:10.37,2013-07-15 01:32:00,
2013-07-14 20:37:00,81.1,67.8,30.18,South,178,0.0,0.0,64,0.00,FEW,,0.00,0.0,WeatherDisplay:10.37,2013-07-15 01:37:00,
2013-07-14 20:42:00,80.9,68.0,30.18,South,178,0.0,0.0,65,0.00,FEW,,0.00,0.0,WeatherDisplay:10.37,2013-07-15 01:42:00,
2013-07-14 20:47:00,80.5,68.1,30.18,South,178,0.0,0.0,66,0.00,FEW,,0.00,0.0,WeatherDisplay:10.37,2013-07-15 01:47:00,
2013-07-14 20:52:00,80.1,67.7,30.18,South,178,0.0,0.0,66,0.00,FEW,,0.00,0.0,WeatherDisplay:10.37,2013-07-15 01:52:00,
2013-07-14 20:57:00,79.8,67.9,30.18,South,178,0.0,0.0,67,0.00,FEW,,0.00,0.0,WeatherDisplay:10.37,2013-07-15 01:57:00,
2013-07-14 21:02:00,79.6,68.1,30.18,South,178,0.0,0.0,68,0.00,FEW,,0.00,0.0,WeatherDisplay:10.37,2013-07-15 02:02:00,
2013-07-14 21:07:00,79.3,68.2,30.18,South,178,0.0,0.0,69,0.00,FEW,,0.00,0.0,WeatherDisplay:10.37,2013-07-15 02:07:00,
2013-07-14 21:12:00,79.0,68.0,30.18,South,178,0.0,0.0,69,0.00,FEW,,0.00,0.0,WeatherDisplay:10.37,2013-07-15 02:12:00,
2013-07-14 21:17:00,78.6,68.0,30.18,South,178,0.0,0.0,70,0.00,FEW,,0.00,0.0,WeatherDisplay:10.37,2013-07-15 02:17:00,
2013-07-14 21:22:00,78.5,68.3,30.18,South,178,0.0,0.0,71,0.00,FEW,,0.00,0.0,WeatherDisplay:10.37,2013-07-15 02:22:00,
2013-07-14 21:27:00,78.2,68.5,30.18,South,178,0.0,0.0,72,0.00,FEW,,0.00,0.0,WeatherDisplay:10.37,2013-07-15 02:27:00,
2013-07-14 21:32:00,77.9,68.1,30.19,South,178,0.0,0.0,72,0.00,FEW,,0.00,0.0,WeatherDisplay:10.37,2013-07-15 02:32:00,
2013-07-14 21:37:00,77.7,68.4,30.19,South,178,0.0,0.0,73,0.00,FEW,,0.00,0.0,WeatherDisplay:10.37,2013-07-15 02:37:00,
2013-07-14 21:42:00,77.4,68.1,30.19,South,178,0.0,0.0,73,0.00,FEW,,0.00,0.0,WeatherDisplay:10.37,2013-07-15 02:42:00,
2013-07-14 21:47:00,77.2,68.3,30.19,South,178,0.0,0.0,74,0.00,FEW,,0.00,0.0,WeatherDisplay:10.37,2013-07-15 02:47:00,
2013-07-14 21:52:00,76.8,68.3,30.19,South,178,0.0,0.0,75,0.00,FEW,,0.00,0.0,WeatherDisplay:10.37,2013-07-15 02:52:00,
2013-07-14 21:57:00,76.5,68.0,30.19,South,178,0.0,0.0,75,0.00,FEW,,0.00,0.0,WeatherDisplay:10.37,2013-07-15 02:57:00,
2013-07-14 22:02:00,76.3,68.2,30.19,South,178,0.0,0.0,76,0.00,FEW,,0.00,0.0,WeatherDisplay:10.37,2013-07-15 03:02:00,
2013-07-14 22:07:00,76.1,68.0,30.19,South,178,0.0,0.0,76,0.00,FEW,,0.00,0.0,WeatherDisplay:10.37,2013-07-15 03:07:00,
2013-07-14 22:12:00,75.8,68.1,30.19,South,178,0.0,0.0,77,0.00,FEW,,0.00,0.0,WeatherDisplay:10.37,2013-07-15 03:12:00,
2013-07-14 22:17:00,75.6,67.9,30.20,South,178,0.0,0.0,77,0.00,FEW,,0.00,0.0,WeatherDisplay:10.37,2013-07-15 03:17:00,
2013-07-14 22:22:00,75.4,68.1,30.20,South,178,0.0,0.0,78,0.00,FEW,,0.00,0.0,WeatherDisplay:10.37,2013-07-15 03:22:00,
2013-07-14 22:27:00,75.2,67.8,30.20,South,178,0.0,0.0,78,0.00,FEW,,0.00,0.0,WeatherDisplay:10.37,2013-07-15 03:27:00,
2013-07-14 22:32:00,74.9,67.9,30.20,South,178,0.0,0.0,79,0.00,FEW,,0.00,0.0,WeatherDisplay:10.37,2013-07-15 03:32:00,
2013-07-14 22:37:00,74.7,68.1,30.20,South,178,0.0,0.0,80,0.00,FEW,,0.00,0.0,WeatherDisplay:10.37,2013-07-15 03:37:00,
2013-07-14 22:42:00,74.6,68.0,30.20,South,178,0.0,0.0,80,0.00,FEW,,0.00,0.0,WeatherDisplay:10.37,2013-07-15 03:42:00,
2013-07-14 22:47:00,74.2,68.0,30.20,South,178,0.0,0.0,81,0.00,FEW,,0.00,0.0,WeatherDisplay:10.37,2013-07-15 03:47:00,
2013-07-14 22:52:00,74.0,67.8,30.20,South,178,0.0,0.0,81,0.00,FEW,,0.00,0.0,WeatherDisplay:10.37,2013-07-15 03:52:00,
2013-07-14 22:57:00,73.9,67.7,30.20,South,178,0.0,0.0,81,0.00,FEW,,0.00,0.0,WeatherDisplay:10.37,2013-07-15 03:57:00,
2013-07-14 23:01:00,73.7,67.9,30.20,South,178,0.0,0.0,82,0.00,FEW,,0.00,0.0,WeatherDisplay:10.37,2013-07-15 04:01:00,
2013-07-14 23:02:00,73.7,67.9,30.20,South,178,0.0,0.0,82,0.00,FEW,,0.00,0.0,WeatherDisplay:10.37,2013-07-15 04:02:00,
2013-07-14 23:03:00,73.7,67.9,30.20,South,178,0.0,0.0,82,0.00,FEW,,0.00,0.0,WeatherDisplay:10.37,2013-07-15 04:03:00,
2013-07-14 23:08:00,73.5,67.7,30.20,South,178,0.0,0.0,82,0.00,FEW,,0.00,0.0,WeatherDisplay:10.37,2013-07-15 04:08:00,
2013-07-14 23:13:00,73.3,67.8,30.20,South,178,0.0,0.0,83,0.00,FEW,,0.00,0.0,WeatherDisplay:10.37,2013-07-15 04:13:00,
2013-07-14 23:18:00,73.2,67.7,30.20,South,178,0.0,0.0,83,0.00,FEW,,0.00,0.0,WeatherDisplay:10.37,2013-07-15 04:18:00,
2013-07-14 23:23:00,73.0,67.5,30.20,South,178,0.0,0.0,83,0.00,FEW,,0.00,0.0,WeatherDisplay:10.37,2013-07-15 04:23:00,
2013-07-14 23:28:00,72.8,67.7,30.20,South,178,0.0,0.0,84,0.00,FEW,,0.00,0.0,WeatherDisplay:10.37,2013-07-15 04:28:00,
2013-07-14 23:33:00,72.7,67.9,30.21,South,178,0.0,0.0,85,0.00,FEW,,0.00,0.0,WeatherDisplay:10.37,2013-07-15 04:33:00,
2013-07-14 23:38:00,72.5,67.7,30.21,South,178,0.0,0.0,85,0.00,FEW,,0.00,0.0,WeatherDisplay:10.37,2013-07-15 04:38:00,
2013-07-14 23:43:00,72.5,68.1,30.21,South,178,0.0,0.0,86,0.00,FEW,,0.00,0.0,WeatherDisplay:10.37,2013-07-15 04:43:00,
2013-07-14 23:48:00,72.3,68.2,30.21,South,178,0.0,0.0,87,0.00,FEW,,0.00,0.0,WeatherDisplay:10.37,2013-07-15 04:48:00,
2013-07-14 23:53:00,72.1,68.0,30.21,South,178,0.0,0.0,87,0.00,FEW,,0.00,0.0,WeatherDisplay:10.37,2013-07-15 04:53:00,
2013-07-14 23:58:00,72.0,67.9,30.21,South,178,0.0,0.0,87,0.00,FEW,,0.00,0.0,WeatherDisplay:10.37,2013-07-15 04:58:00,